• In Russia
  • List of Countries
  • For 7 days
  • Water Temperature
  • Satellite Maps
  • Weather Map
  • Weather Widgets
  • user-avatar
    Login

    Hourly Weather Idzhewan

    Today, 11 December, Tuesday

    Time Temperature Precipitation Wind Pressure Humidity
    00:00 +5°C° 0 mm 2 mps 692 mmHg 68%
    01:00 +4°C° 0 mm 3 mps 692 mmHg 68%
    02:00 +4°C° 0 mm 3 mps 692 mmHg 68%
    03:00 +4°C° 0 mm 3 mps 692 mmHg 69%
    04:00 +4°C° 0 mm 3 mps 692 mmHg 69%
    05:00 +4°C° 0 mm 3 mps 692 mmHg 68%
    06:00 +4°C° 0 mm 3 mps 692 mmHg 68%
    07:00 +5°C° 0 mm 3 mps 692 mmHg 65%
    08:00 +7°C° 0 mm 2 mps 692 mmHg 62%
    09:00 +8°C° 0 mm 2 mps 692 mmHg 58%
    10:00 +9°C° 0 mm 2 mps 691 mmHg 55%
    11:00 +10°C° 0 mm 2 mps 691 mmHg 51%
    12:00 +12°C° 0 mm 2 mps 691 mmHg 48%
    13:00 +12°C° 0 mm 2 mps 691 mmHg 49%
    14:00 +12°C° 0 mm 2 mps 690 mmHg 51%
    15:00 +12°C° 0 mm 2 mps 690 mmHg 53%
    16:00 +10°C° 0 mm 2 mps 690 mmHg 57%
    17:00 +9°C° 0 mm 2 mps 690 mmHg 61%
    18:00 +7°C° 0 mm 2 mps 690 mmHg 65%
    19:00 +7°C° 0 mm 2 mps 690 mmHg 65%
    20:00 +7°C° 0 mm 2 mps 690 mmHg 65%
    21:00 +7°C° 0 mm 2 mps 690 mmHg 65%
    22:00 +7°C° 0.1 mm 2 mps 690 mmHg 66%
    23:00 +7°C° 0.1 mm 2 mps 691 mmHg 68%

    Tomorrow, 12 December, Wednesday

    Time Temperature Precipitation Wind Pressure Humidity
    00:00 +8°C° 0.1 mm 2 mps 691 mmHg 69%
    01:00 +7°C° 0.2 mm 2 mps 691 mmHg 71%
    02:00 +7°C° 0.2 mm 2 mps 691 mmHg 73%
    03:00 +7°C° 0.2 mm 2 mps 691 mmHg 75%
    04:00 +7°C° 0.2 mm 2 mps 691 mmHg 77%
    05:00 +8°C° 0.2 mm 1 mps 691 mmHg 78%
    06:00 +7°C° 0.2 mm 1 mps 691 mmHg 80%
    07:00 +8°C° 0 mm 1 mps 691 mmHg 78%
    08:00 +7°C° 0 mm 2 mps 691 mmHg 76%
    09:00 +7°C° 0 mm 2 mps 690 mmHg 74%
    10:00 +8°C° 0.1 mm 2 mps 690 mmHg 71%
    11:00 +9°C° 0.1 mm 3 mps 689 mmHg 67%
    12:00 +10°C° 0.1 mm 3 mps 688 mmHg 64%
    13:00 +10°C° 0.2 mm 3 mps 688 mmHg 64%
    14:00 +9°C° 0.2 mm 3 mps 687 mmHg 64%
    15:00 +9°C° 0.2 mm 3 mps 687 mmHg 64%
    16:00 +9°C° 0.5 mm 2 mps 687 mmHg 68%
    17:00 +8°C° 0.5 mm 2 mps 687 mmHg 72%
    18:00 +8°C° 0.5 mm 2 mps 687 mmHg 76%
    19:00 +7°C° 0.5 mm 2 mps 687 mmHg 77%
    20:00 +7°C° 0.5 mm 2 mps 687 mmHg 77%
    21:00 +7°C° 0.5 mm 2 mps 687 mmHg 78%
    22:00 +7°C° 0.3 mm 2 mps 687 mmHg 78%
    23:00 +7°C° 0.3 mm 2 mps 687 mmHg 79%

    Day after tomorrow, 13 December, Thursday

    Time Temperature Precipitation Wind Pressure Humidity
    00:00 +7°C° 0.3 mm 2 mps 687 mmHg 80%
    01:00 +7°C° 0.7 mm 2 mps 688 mmHg 82%
    02:00 +7°C° 0.7 mm 2 mps 688 mmHg 84%
    03:00 +6°C° 0.7 mm 2 mps 688 mmHg 85%
    04:00 +6°C° 0.2 mm 2 mps 688 mmHg 85%
    05:00 +5°C° 0.2 mm 2 mps 688 mmHg 85%
    06:00 +5°C° 0.2 mm 2 mps 688 mmHg 84%
    07:00 +5°C° 0 mm 2 mps 689 mmHg 81%
    08:00 +5°C° 0 mm 2 mps 689 mmHg 79%
    09:00 +5°C° 0 mm 3 mps 690 mmHg 76%
    10:00 +5°C° 0 mm 3 mps 690 mmHg 72%
    11:00 +7°C° 0 mm 3 mps 690 mmHg 69%
    12:00 +7°C° 0 mm 4 mps 690 mmHg 65%
    13:00 +8°C° 0.1 mm 3 mps 690 mmHg 66%
    14:00 +7°C° 0.1 mm 3 mps 691 mmHg 67%
    15:00 +7°C° 0.1 mm 3 mps 691 mmHg 68%
    16:00 +5°C° 0 mm 3 mps 692 mmHg 70%
    17:00 +5°C° 0 mm 2 mps 693 mmHg 72%
    18:00 +4°C° 0 mm 2 mps 693 mmHg 75%
    19:00 +4°C° 0 mm 2 mps 694 mmHg 74%
    20:00 +3°C° 0 mm 2 mps 694 mmHg 73%
    21:00 +3°C° 0 mm 2 mps 695 mmHg 72%
    22:00 +2°C° 0 mm 2 mps 695 mmHg 71%
    23:00 +2°C° 0 mm 2 mps 695 mmHg 71%

    14 December, Friday

    Time Temperature Precipitation Wind Pressure Humidity
    00:00 +2°C° 0 mm 2 mps 696 mmHg 70%
    01:00 +2°C° 0 mm 2 mps 696 mmHg 70%
    02:00 +2°C° 0 mm 2 mps 696 mmHg 70%
    03:00 +1°C° 0 mm 2 mps 697 mmHg 70%
    04:00 +1°C° 0 mm 2 mps 697 mmHg 70%
    05:00 +1°C° 0 mm 2 mps 697 mmHg 70%
    06:00 +1°C° 0 mm 2 mps 698 mmHg 71%
    07:00 +1°C° 0 mm 2 mps 698 mmHg 69%
    08:00 +2°C° 0 mm 2 mps 698 mmHg 68%
    09:00 +3°C° 0 mm 1 mps 698 mmHg 67%
    10:00 +4°C° 0 mm 1 mps 698 mmHg 65%
    11:00 +4°C° 0 mm 2 mps 698 mmHg 63%
    12:00 +5°C° 0 mm 2 mps 697 mmHg 62%
    13:00 +6°C° 0 mm 1 mps 697 mmHg 64%
    14:00 +6°C° 0 mm 1 mps 697 mmHg 65%
    15:00 +5°C° 0 mm 1 mps 696 mmHg 67%
    16:00 +5°C° 0.1 mm 1 mps 697 mmHg 72%
    17:00 +4°C° 0.1 mm 1 mps 697 mmHg 76%
    18:00 +3°C° 0.1 mm 0 mps 697 mmHg 81%
    19:00 +3°C° 0.1 mm 0 mps 697 mmHg 82%
    20:00 +3°C° 0.1 mm 1 mps 698 mmHg 83%
    21:00 +3°C° 0.1 mm 1 mps 698 mmHg 83%
    22:00 +3°C° 0.1 mm 1 mps 698 mmHg 84%
    23:00 +3°C° 0.1 mm 1 mps 698 mmHg 85%

    15 December, Saturday

    Time Temperature Precipitation Wind Pressure Humidity
    00:00 +3°C° 0.1 mm 1 mps 698 mmHg 85%
    01:00 +3°C° 0 mm 1 mps 698 mmHg 86%
    02:00 +2°C° 0 mm 1 mps 699 mmHg 86%
    03:00 +2°C° 0 mm 1 mps 699 mmHg 87%
    04:00 +1°C° 0 mm 1 mps 699 mmHg 86%
    05:00 +1°C° 0 mm 1 mps 699 mmHg 86%
    06:00 +1°C° 0 mm 1 mps 699 mmHg 85%
    07:00 +2°C° 0 mm 1 mps 700 mmHg 81%
    08:00 +2°C° 0 mm 1 mps 700 mmHg 78%
    09:00 +3°C° 0 mm 1 mps 700 mmHg 74%
    10:00 +4°C° 0 mm 1 mps 700 mmHg 71%
    11:00 +5°C° 0 mm 1 mps 700 mmHg 68%
    12:00 +6°C° 0 mm 1 mps 700 mmHg 65%
    13:00 +6°C° 0 mm 1 mps 700 mmHg 65%
    14:00 +6°C° 0 mm 1 mps 700 mmHg 65%
    15:00 +6°C° 0 mm 1 mps 700 mmHg 65%
    16:00 +5°C° 0 mm 1 mps 700 mmHg 68%
    17:00 +3°C° 0 mm 1 mps 700 mmHg 71%
    18:00 +2°C° 0 mm 1 mps 701 mmHg 74%
    19:00 +2°C° 0 mm 1 mps 701 mmHg 73%
    20:00 +2°C° 0 mm 1 mps 701 mmHg 71%
    21:00 +2°C° 0 mm 1 mps 701 mmHg 70%
    22:00 +2°C° 0 mm 1 mps 701 mmHg 69%
    23:00 +2°C° 0 mm 1 mps 701 mmHg 68%

    16 December, Sunday

    Time Temperature Precipitation Wind Pressure Humidity
    00:00 +2°C° 0 mm 1 mps 701 mmHg 67%
    01:00 +2°C° 0 mm 1 mps 701 mmHg 67%
    02:00 +2°C° 0 mm 1 mps 701 mmHg 66%
    03:00 +2°C° 0 mm 1 mps 701 mmHg 66%
    04:00 +2°C° 0 mm 1 mps 701 mmHg 65%
    05:00 +2°C° 0 mm 1 mps 701 mmHg 65%
    06:00 +2°C° 0 mm 1 mps 701 mmHg 64%
    07:00 +2°C° 0 mm 1 mps 701 mmHg 62%
    08:00 +3°C° 0 mm 1 mps 701 mmHg 61%
    09:00 +4°C° 0 mm 1 mps 701 mmHg 59%
    10:00 +5°C° 0 mm 1 mps 701 mmHg 58%
    11:00 +6°C° 0 mm 1 mps 700 mmHg 57%
    12:00 +7°C° 0 mm 1 mps 700 mmHg 55%
    13:00 +7°C° 0 mm 1 mps 700 mmHg 57%
    14:00 +6°C° 0 mm 1 mps 700 mmHg 59%
    15:00 +6°C° 0 mm 1 mps 699 mmHg 62%
    16:00 +6°C° 0 mm 1 mps 699 mmHg 63%
    17:00 +5°C° 0 mm 1 mps 700 mmHg 65%
    18:00 +4°C° 0 mm 1 mps 700 mmHg 67%
    19:00 +4°C° 0 mm 1 mps 700 mmHg 67%
    20:00 +4°C° 0 mm 1 mps 700 mmHg 66%
    21:00 +4°C° 0 mm 1 mps 699 mmHg 65%
    22:00 +4°C° 0 mm 1 mps 699 mmHg 65%
    23:00 +4°C° 0 mm 1 mps 699 mmHg 65%
    Show more